Weather History for Pine River, MN

Change the Weather History Date:

Thursday, November 7, 2013

  Actual Average Record
Temperature  
Mean Temperature 25 °F -  
Max Temperature 35 °F 39 °F 64 °F (1999)
Min Temperature 15 °F 24 °F 0 °F (2003)
Degree Days  
Heating Degree Days 40    
Moisture  
Dew Point 20 °F    
Average Humidity 80    
Maximum Humidity 100    
Minimum Humidity 52    
Precipitation  
Precipitation 0.00 in - - ()
Sea Level Pressure  
Sea Level Pressure 30.18 in    
Wind  
Wind Speed 1 mph (West)    
Max Wind Speed 9 mph    
Max Gust Speed -    
Visibility 9 miles    
Events      
Averages and records for this station are not official NWS values.
T = Trace of Precipitation, MM = Missing Value Source: NWS Daily Summary

Daily Weather History Graph

Daily Weather History Graph

Search for Another Location

Airport:

Trip Planner

Search our weather history database for the weather conditions in past years. The results will help you decide how hot, cold, wet, or windy it might be!

Date:

Astronomy

Nov. 07, 2013 Rise Set
Actual Time 7:08 AM CST 4:53 PM CST
Civil Twilight 6:36 AM CST 5:25 PM CST
Nautical Twilight 6:00 AM CST 6:01 PM CST
Astronomical Twilight 5:24 AM CST 6:36 PM CST
Moon 11:21 AM CST (11/7) 9:03 PM CST (11/7)
Length of Visible Light 10h 48m
Length of Day
9h 44m
Waxing Crescent, 23% of the Moon is Illuminated
Nov 7
Waxing Crescent
Nov 9
First Quarter
Nov 17
Full
Nov 25
Last Quarter
Dec 2
New

Hourly Weather History & Observations

Time (CST) Temp. Windchill Dew Point Humidity Pressure Visibility Wind Dir Wind Speed Gust Speed Precip Events Conditions
12:13 AM 17.6 °F - 15.8 °F 93% 30.16 in 7.0 mi Calm Calm - N/A   Clear
12:33 AM 17.6 °F - 15.8 °F 93% 30.16 in 10.0 mi Calm Calm - N/A   Clear
12:53 AM 17.6 °F - 15.8 °F 93% 30.17 in 7.0 mi Calm Calm - N/A   Clear
1:12 AM 17.6 °F - 15.8 °F 93% 30.16 in 7.0 mi Calm Calm - N/A   Clear
1:33 AM 17.6 °F - 15.8 °F 93% 30.16 in 7.0 mi Calm Calm - N/A   Clear
1:52 AM 17.6 °F - 15.8 °F 93% 30.16 in 7.0 mi Calm Calm - N/A   Clear
2:13 AM 15.8 °F - 15.8 °F 100% 30.16 in 7.0 mi Calm Calm - N/A   Clear
2:32 AM 15.8 °F - 15.8 °F 100% 30.16 in 7.0 mi Calm Calm - N/A   Scattered Clouds
2:52 AM 17.6 °F - 15.8 °F 93% 30.16 in 7.0 mi Calm Calm - N/A   Mostly Cloudy
3:13 AM 17.6 °F - 15.8 °F 93% 30.16 in 7.0 mi Calm Calm - N/A   Overcast
3:32 AM 19.4 °F - 17.6 °F 93% 30.16 in 7.0 mi Calm Calm - N/A   Overcast
3:53 AM 21.2 °F - 19.4 °F 93% 30.16 in 7.0 mi Calm Calm - N/A   Overcast
4:13 AM 21.2 °F - 19.4 °F 93% 30.17 in 10.0 mi Calm Calm - N/A   Overcast
4:33 AM 23.0 °F - 21.2 °F 93% 30.17 in 10.0 mi Calm Calm - N/A   Overcast
4:53 AM 23.0 °F - 21.2 °F 93% 30.17 in 10.0 mi Calm Calm - N/A   Overcast
5:13 AM 24.8 °F - 21.2 °F 86% 30.17 in 10.0 mi Calm Calm - N/A   Overcast
5:32 AM 24.8 °F - 21.2 °F 86% 30.18 in 10.0 mi Calm Calm - N/A   Overcast
5:53 AM 24.8 °F - 21.2 °F 86% 30.18 in 10.0 mi Calm Calm - N/A   Overcast
6:13 AM 24.8 °F - 21.2 °F 86% 30.18 in 10.0 mi Calm Calm - N/A   Overcast
6:32 AM 24.8 °F - 21.2 °F 86% 30.18 in 10.0 mi Calm Calm - N/A   Overcast
6:53 AM 24.8 °F - 21.2 °F 86% 30.18 in 10.0 mi Calm Calm - N/A   Overcast
7:11 AM 24.8 °F - 21.2 °F 86% 30.18 in 10.0 mi Calm Calm - N/A   Overcast
7:33 AM 24.8 °F - 21.2 °F 86% 30.19 in 10.0 mi Calm Calm - N/A   Overcast
7:52 AM 24.8 °F - 21.2 °F 86% 30.20 in 10.0 mi Calm Calm - N/A   Overcast
8:13 AM 24.8 °F - 21.2 °F 86% 30.20 in 10.0 mi Calm Calm - N/A   Overcast
8:33 AM 26.6 °F - 21.2 °F 80% 30.20 in 10.0 mi Calm Calm - N/A   Overcast
8:52 AM 26.6 °F - 23.0 °F 86% 30.20 in 10.0 mi Calm Calm - N/A   Overcast
9:13 AM 28.4 °F 24.6 °F 23.0 °F 80% 30.21 in 10.0 mi West 3.5 mph - N/A   Overcast
9:32 AM 28.4 °F - 23.0 °F 80% 30.21 in 10.0 mi Calm Calm - N/A   Overcast
9:52 AM 28.4 °F 24.6 °F 21.2 °F 74% 30.21 in 10.0 mi NW 3.5 mph - N/A   Mostly Cloudy
10:12 AM 30.2 °F 26.7 °F 21.2 °F 69% 30.21 in 10.0 mi NNW 3.5 mph - N/A   Scattered Clouds
10:33 AM 30.2 °F 24.3 °F 21.2 °F 69% 30.21 in 10.0 mi NNW 5.8 mph - N/A   Clear
10:52 AM 32.0 °F 28.7 °F 21.2 °F 64% 30.21 in 10.0 mi West 3.5 mph - N/A   Clear
11:13 AM 33.8 °F 29.6 °F 21.2 °F 60% 30.21 in 10.0 mi West 4.6 mph - N/A   Scattered Clouds
11:33 AM 33.8 °F 29.6 °F 21.2 °F 60% 30.20 in 10.0 mi West 4.6 mph - N/A   Scattered Clouds
11:53 AM 33.8 °F 27.0 °F 21.2 °F 60% 30.20 in 10.0 mi West 8.1 mph - N/A   Scattered Clouds
12:13 PM 35.6 °F 29.9 °F 21.2 °F 56% 30.19 in 10.0 mi West 6.9 mph - N/A   Scattered Clouds
12:32 PM 35.6 °F 29.2 °F 21.2 °F 56% 30.18 in 10.0 mi West 8.1 mph - N/A   Scattered Clouds
12:52 PM 35.6 °F 30.7 °F 21.2 °F 56% 30.17 in 10.0 mi West 5.8 mph - N/A   Scattered Clouds
1:13 PM 35.6 °F 30.7 °F 19.4 °F 52% 30.17 in 10.0 mi West 5.8 mph - N/A   Scattered Clouds
1:32 PM 35.6 °F 29.9 °F 19.4 °F 52% 30.17 in 10.0 mi West 6.9 mph - N/A   Scattered Clouds
1:53 PM 35.6 °F 30.7 °F 19.4 °F 52% 30.17 in 10.0 mi WNW 5.8 mph - N/A   Scattered Clouds
2:13 PM 35.6 °F 30.7 °F 19.4 °F 52% 30.17 in 10.0 mi WNW 5.8 mph - N/A   Overcast
2:33 PM 35.6 °F 30.7 °F 19.4 °F 52% 30.16 in 10.0 mi West 5.8 mph - N/A   Overcast
2:52 PM 33.8 °F 29.6 °F 19.4 °F 56% 30.17 in 10.0 mi West 4.6 mph - N/A   Mostly Cloudy
3:13 PM 33.8 °F 27.7 °F 19.4 °F 56% 30.17 in 10.0 mi West 6.9 mph - N/A   Scattered Clouds
3:32 PM 33.8 °F 26.4 °F 21.2 °F 60% 30.17 in 10.0 mi West 9.2 mph - N/A   Clear
3:53 PM 32.0 °F 25.6 °F 21.2 °F 64% 30.17 in 10.0 mi West 6.9 mph - N/A   Clear
4:13 PM 30.2 °F 25.4 °F 21.2 °F 69% 30.17 in 10.0 mi WSW 4.6 mph - N/A   Scattered Clouds
4:32 PM 30.2 °F - 23.0 °F 75% 30.17 in 10.0 mi Calm Calm - N/A   Mostly Cloudy
4:53 PM 30.2 °F 25.4 °F 24.8 °F 80% 30.18 in 10.0 mi West 4.6 mph - N/A   Overcast
5:13 PM 30.2 °F 26.7 °F 24.8 °F 80% 30.18 in 10.0 mi West 3.5 mph - N/A   Overcast
5:32 PM 30.2 °F - 23.0 °F 75% 30.18 in 10.0 mi Calm Calm - N/A   Scattered Clouds
5:53 PM 28.4 °F - 23.0 °F 80% 30.18 in 10.0 mi Calm Calm - N/A   Clear
6:12 PM 28.4 °F - 23.0 °F 80% 30.17 in 10.0 mi Calm Calm - N/A   Clear
6:33 PM 26.6 °F - 21.2 °F 80% 30.18 in 10.0 mi Calm Calm - N/A   Clear
6:53 PM 26.6 °F - 21.2 °F 80% 30.18 in 10.0 mi Calm Calm - N/A   Clear
7:12 PM 24.8 °F - 21.2 °F 86% 30.18 in 7.0 mi Calm Calm - N/A   Clear
7:33 PM 23.0 °F - 21.2 °F 93% 30.17 in 10.0 mi Calm Calm - N/A   Clear
7:53 PM 24.8 °F - 21.2 °F 86% 30.18 in 10.0 mi Calm Calm - N/A   Clear
8:13 PM 23.0 °F - 19.4 °F 86% 30.17 in 10.0 mi Calm Calm - N/A   Clear
8:33 PM 21.2 °F - 19.4 °F 93% 30.17 in 10.0 mi Calm Calm - N/A   Clear
8:52 PM 21.2 °F - 21.2 °F 100% 30.17 in 10.0 mi Calm Calm - N/A   Clear
9:12 PM 21.2 °F - 19.4 °F 93% 30.17 in 7.0 mi Calm Calm - N/A   Clear
9:32 PM 21.2 °F - 19.4 °F 93% 30.17 in 10.0 mi Calm Calm - N/A   Clear
9:53 PM 19.4 °F - 17.6 °F 93% 30.17 in 7.0 mi Calm Calm - N/A   Clear
10:13 PM 19.4 °F - 17.6 °F 93% 30.16 in 7.0 mi Calm Calm - N/A   Clear
10:33 PM 19.4 °F - 17.6 °F 93% 30.16 in 7.0 mi Calm Calm - N/A   Clear
10:52 PM 19.4 °F - 17.6 °F 93% 30.16 in 7.0 mi Calm Calm - N/A   Clear
11:12 PM 19.4 °F - 17.6 °F 93% 30.16 in 7.0 mi Calm Calm - N/A   Clear
11:32 PM 17.6 °F - 15.8 °F 93% 30.15 in 7.0 mi Calm Calm - N/A   Clear
11:53 PM 17.6 °F - 15.8 °F 93% 30.15 in 7.0 mi Calm Calm - N/A   Clear